Location: Unspecified
(0.0000°N, 0.0000°E)
Time: 14:44:58
(UTC+02:00)

Tiros 1 despin weight - All Passes

Search period start: 30 April 2017 00:00
Search period end: 10 May 2017 00:00
Orbit: 595 x 644 km, 48.2° (Epoch: 28 April)

Date Brightness Start Highest point End Pass type
(mag) Time Alt. Az. Time Alt. Az. Time Alt. Az.
30 Apr - 00:01:20 10° NNW 00:05:40 45° NE 00:09:58 10° SE night (unlit)
30 Apr - 01:45:07 10° WSW 01:47:06 13° SW 01:49:04 10° SSW night (unlit)
30 Apr - 12:09:26 10° SW 12:13:59 79° SE 12:18:37 10° NE daylight
01 May - 00:18:10 10° NW 00:22:38 61° SW 00:27:03 10° SSE night (unlit)
01 May - 10:46:37 10° S 10:49:32 17° SE 10:52:27 10° E daylight
01 May - 12:26:45 10° WSW 12:30:57 36° NW 12:35:13 10° NNE daylight
01 May - 22:54:21 10° N 22:58:11 26° NE 23:01:58 10° ESE visible
02 May - 00:36:06 10° WNW 00:39:36 22° SW 00:43:04 10° S night (unlit)
02 May - 11:02:11 10° SSW 11:06:31 43° SE 11:10:53 10° ENE daylight
02 May - 12:45:35 10° W 12:47:59 14° NW 12:50:25 10° NNW daylight
02 May - 23:10:37 10° NW 23:15:10 75° NE 23:19:40 10° SE visible
03 May - 11:18:58 10° SW 11:23:29 65° NW 11:28:02 10° NNE daylight
03 May - 21:47:54 10° NNE 21:50:40 16° NE 21:53:25 10° E visible
03 May - 23:27:54 10° WNW 23:32:07 37° SW 23:36:18 10° SSE night (unlit)
04 May - 09:55:18 10° S 09:59:02 25° SE 10:02:48 10° ENE daylight
04 May - 11:36:49 10° WSW 11:40:27 23° NW 11:44:08 10° N daylight
04 May - 22:03:21 10° NNW 22:07:41 41° NE 22:11:58 10° ESE visible
04 May - 23:46:40 10° W 23:49:07 14° SW 23:51:33 10° SSW night (unlit)
05 May - 10:11:30 10° SSW 10:16:00 71° SE 10:20:33 10° NE daylight
05 May - 22:20:06 10° NW 22:24:39 68° SW 22:29:09 10° SSE visible
06 May - 08:48:59 10° SSE 08:51:32 15° SE 08:54:05 10° E daylight
06 May - 10:28:43 10° WSW 10:32:57 40° NW 10:37:14 10° NNE daylight
06 May - 20:56:27 10° N 21:00:11 24° NE 21:03:54 10° ESE visible
06 May - 22:37:53 10° WNW 22:41:36 24° SW 22:45:17 10° S visible
07 May - 09:04:20 10° SSW 09:08:32 39° SE 09:12:46 10° ENE daylight
07 May - 10:47:20 10° W 10:49:58 15° NW 10:52:38 10° NNW daylight
07 May - 21:12:35 10° NNW 21:17:10 67° NE 21:21:41 10° SE visible
08 May - 09:21:00 10° SW 09:25:28 72° NW 09:30:01 10° NNE daylight
08 May - 19:50:06 10° NNE 19:52:39 15° NE 19:55:11 10° E daylight
08 May - 21:29:45 10° WNW 21:34:07 42° SW 21:38:25 10° SSE visible
09 May - 07:57:32 10° S 08:01:02 22° SE 08:04:34 10° ENE daylight
09 May - 09:38:44 10° WSW 09:42:27 25° NW 09:46:12 10° N daylight
09 May - 20:05:22 10° NNW 20:09:40 38° NE 20:13:55 10° ESE daylight
09 May - 21:48:16 10° W 21:51:06 16° SW 21:53:55 10° SSW visible
